When you browse on this site, cookies collect data to enhance your experience and personalize the content and advertising you see.
Visit our Privacy Policy to learn more. By continuing to use the site, you agree to this use of cookies and data.
  • In Lithuania
  • List of Countries
  • For 7 days
  • Water Temperature
  • Satellite Maps
  • Weather Map
  • Weather Widgets
  • user-avatar
    Login

    Hourly Weather Otradnyy

    Today, 20 February, Wednesday

    Time Temperature Precipitation Wind Pressure Humidity
    00:00 -3°C° 0 mm 0 mps 749 mmHg 55%
    01:00 -2°C° 0 mm 1 mps 749 mmHg 54%
    02:00 -2°C° 0 mm 1 mps 748 mmHg 54%
    03:00 -5°C° 0 mm 2 mps 748 mmHg 50%
    04:00 -6°C° 0 mm 3 mps 748 mmHg 51%
    05:00 -5°C° 0 mm 3 mps 748 mmHg 51%
    06:00 -5°C° 0 mm 3 mps 747 mmHg 52%
    07:00 -5°C° 0 mm 3 mps 747 mmHg 50%
    08:00 -4°C° 0 mm 3 mps 747 mmHg 49%
    09:00 -2°C° 0 mm 3 mps 747 mmHg 45%
    10:00 -1°C° 0 mm 4 mps 746 mmHg 42%
    11:00 0°C° 0 mm 4 mps 746 mmHg 38%
    12:00 +3°C° 0 mm 4 mps 746 mmHg 34%
    13:00 +4°C° 0 mm 4 mps 745 mmHg 34%
    14:00 +4°C° 0 mm 3 mps 745 mmHg 34%
    15:00 +5°C° 0 mm 3 mps 744 mmHg 34%
    16:00 +4°C° 0 mm 3 mps 744 mmHg 38%
    17:00 +2°C° 0 mm 3 mps 744 mmHg 43%
    18:00 +1°C° 0 mm 3 mps 744 mmHg 47%
    19:00 0°C° 0 mm 3 mps 744 mmHg 48%
    20:00 0°C° 0 mm 3 mps 744 mmHg 48%
    21:00 -1°C° 0 mm 3 mps 744 mmHg 49%
    22:00 -1°C° 0 mm 3 mps 744 mmHg 48%
    23:00 -1°C° 0 mm 3 mps 743 mmHg 48%

    Tomorrow, 21 February, Thursday

    Time Temperature Precipitation Wind Pressure Humidity
    00:00 -1°C° 0 mm 2 mps 743 mmHg 47%
    01:00 -1°C° 0 mm 2 mps 743 mmHg 47%
    02:00 -1°C° 0 mm 2 mps 743 mmHg 47%
    03:00 +2°C° 0 mm 1 mps 743 mmHg 47%
    04:00 +2°C° 0 mm 1 mps 743 mmHg 48%
    05:00 +2°C° 0 mm 1 mps 742 mmHg 48%
    06:00 +2°C° 0 mm 1 mps 742 mmHg 49%
    07:00 +3°C° 0 mm 1 mps 742 mmHg 46%
    08:00 +4°C° 0 mm 1 mps 742 mmHg 44%
    09:00 +4°C° 0 mm 2 mps 742 mmHg 42%
    10:00 +5°C° 0 mm 2 mps 742 mmHg 39%
    11:00 +7°C° 0 mm 2 mps 742 mmHg 36%
    12:00 +9°C° 0 mm 2 mps 741 mmHg 32%
    13:00 +9°C° 0 mm 3 mps 741 mmHg 31%
    14:00 +10°C° 0 mm 3 mps 741 mmHg 30%
    15:00 +10°C° 0 mm 4 mps 740 mmHg 29%
    16:00 +8°C° 0 mm 4 mps 740 mmHg 37%
    17:00 +8°C° 0 mm 3 mps 740 mmHg 46%
    18:00 +7°C° 0 mm 3 mps 740 mmHg 55%
    19:00 +7°C° 0.2 mm 3 mps 740 mmHg 63%
    20:00 +5°C° 0.2 mm 3 mps 740 mmHg 71%
    21:00 +5°C° 0.2 mm 4 mps 740 mmHg 79%
    22:00 +4°C° 0.1 mm 4 mps 740 mmHg 75%
    23:00 +3°C° 0.1 mm 5 mps 740 mmHg 70%

    Day after tomorrow, 22 February, Friday

    Time Temperature Precipitation Wind Pressure Humidity
    00:00 +2°C° 0.1 mm 6 mps 740 mmHg 66%
    01:00 +2°C° 0 mm 6 mps 740 mmHg 68%
    02:00 0°C° 0 mm 7 mps 741 mmHg 69%
    03:00 0°C° 0 mm 8 mps 741 mmHg 71%
    04:00 -1°C° 0 mm 7 mps 741 mmHg 69%
    05:00 -2°C° 0 mm 7 mps 741 mmHg 67%
    06:00 -3°C° 0 mm 6 mps 741 mmHg 65%
    07:00 -3°C° 0 mm 6 mps 742 mmHg 63%
    08:00 -3°C° 0 mm 7 mps 742 mmHg 62%
    09:00 -3°C° 0 mm 7 mps 743 mmHg 60%
    10:00 -2°C° 0 mm 7 mps 743 mmHg 55%
    11:00 -1°C° 0 mm 8 mps 743 mmHg 50%
    12:00 0°C° 0 mm 8 mps 743 mmHg 44%
    13:00 +1°C° 0 mm 8 mps 743 mmHg 43%
    14:00 +1°C° 0 mm 8 mps 742 mmHg 41%
    15:00 +3°C° 0 mm 7 mps 742 mmHg 39%
    16:00 +2°C° 0 mm 5 mps 743 mmHg 43%
    17:00 +3°C° 0 mm 3 mps 743 mmHg 48%
    18:00 +4°C° 0 mm 1 mps 743 mmHg 52%
    19:00 +4°C° 0 mm 1 mps 743 mmHg 53%
    20:00 +3°C° 0 mm 2 mps 743 mmHg 55%
    21:00 +2°C° 0 mm 2 mps 743 mmHg 56%
    22:00 +1°C° 0 mm 3 mps 743 mmHg 56%
    23:00 +1°C° 0 mm 3 mps 743 mmHg 57%

    23 February, Saturday

    Time Temperature Precipitation Wind Pressure Humidity
    00:00 0°C° 0 mm 4 mps 742 mmHg 58%
    01:00 0°C° 0 mm 4 mps 742 mmHg 63%
    02:00 0°C° 0 mm 4 mps 742 mmHg 67%
    03:00 0°C° 0 mm 5 mps 742 mmHg 72%
    04:00 0°C° 0 mm 5 mps 742 mmHg 75%
    05:00 0°C° 0 mm 5 mps 742 mmHg 78%
    06:00 0°C° 0 mm 5 mps 742 mmHg 82%
    07:00 0°C° 0 mm 5 mps 742 mmHg 81%
    08:00 0°C° 0 mm 5 mps 742 mmHg 80%
    09:00 +1°C° 0 mm 6 mps 743 mmHg 79%
    10:00 +2°C° 0 mm 6 mps 743 mmHg 76%
    11:00 +3°C° 0 mm 6 mps 742 mmHg 73%
    12:00 +4°C° 0 mm 6 mps 742 mmHg 70%
    13:00 +5°C° 0 mm 5 mps 742 mmHg 68%
    14:00 +6°C° 0 mm 5 mps 742 mmHg 66%
    15:00 +7°C° 0 mm 5 mps 742 mmHg 64%
    16:00 +6°C° 0 mm 4 mps 742 mmHg 66%
    17:00 +7°C° 0 mm 3 mps 743 mmHg 69%
    18:00 +7°C° 0 mm 2 mps 743 mmHg 72%
    19:00 +6°C° 0 mm 2 mps 743 mmHg 73%
    20:00 +6°C° 0 mm 2 mps 744 mmHg 74%
    21:00 +5°C° 0 mm 3 mps 744 mmHg 76%
    22:00 +4°C° 0.1 mm 3 mps 744 mmHg 77%
    23:00 +4°C° 0.1 mm 3 mps 744 mmHg 79%

    24 February, Sunday

    Time Temperature Precipitation Wind Pressure Humidity
    00:00 +3°C° 0.1 mm 3 mps 744 mmHg 80%
    01:00 +3°C° 0.2 mm 3 mps 745 mmHg 82%
    02:00 +4°C° 0.2 mm 2 mps 745 mmHg 84%
    03:00 +4°C° 0.2 mm 2 mps 745 mmHg 86%
    04:00 +4°C° 0.1 mm 2 mps 745 mmHg 87%
    05:00 +4°C° 0.1 mm 1 mps 745 mmHg 88%
    06:00 +4°C° 0.1 mm 1 mps 745 mmHg 89%
    07:00 +5°C° 0 mm 1 mps 746 mmHg 87%
    08:00 +5°C° 0 mm 1 mps 746 mmHg 86%
    09:00 +4°C° 0 mm 2 mps 746 mmHg 85%
    10:00 +4°C° 0 mm 2 mps 746 mmHg 83%
    11:00 +4°C° 0 mm 3 mps 746 mmHg 81%
    12:00 +4°C° 0 mm 4 mps 746 mmHg 79%
    13:00 +3°C° 0 mm 4 mps 746 mmHg 79%
    14:00 +3°C° 0 mm 4 mps 746 mmHg 78%
    15:00 +3°C° 0 mm 4 mps 746 mmHg 77%
    16:00 +1°C° 0 mm 4 mps 746 mmHg 79%
    17:00 +1°C° 0 mm 4 mps 747 mmHg 80%
    18:00 +1°C° 0 mm 3 mps 747 mmHg 82%
    19:00 +1°C° 0 mm 3 mps 747 mmHg 83%
    20:00 +1°C° 0 mm 3 mps 747 mmHg 84%
    21:00 -1°C° 0 mm 4 mps 747 mmHg 85%
    22:00 -1°C° 0 mm 4 mps 747 mmHg 85%
    23:00 -2°C° 0 mm 4 mps 747 mmHg 84%

    25 February, Monday

    Time Temperature Precipitation Wind Pressure Humidity
    00:00 -2°C° 0 mm 5 mps 747 mmHg 84%
    01:00 -2°C° 0.1 mm 5 mps 747 mmHg 84%
    02:00 -4°C° 0.1 mm 5 mps 747 mmHg 84%
    03:00 -4°C° 0.1 mm 5 mps 747 mmHg 84%
    04:00 -5°C° 0.1 mm 5 mps 747 mmHg 83%
    05:00 -4°C° 0.1 mm 4 mps 747 mmHg 83%
    06:00 -5°C° 0.1 mm 4 mps 747 mmHg 82%
    07:00 -4°C° 0 mm 4 mps 747 mmHg 79%
    08:00 -4°C° 0 mm 4 mps 747 mmHg 77%
    09:00 -4°C° 0 mm 3 mps 747 mmHg 75%
    10:00 -2°C° 0 mm 3 mps 746 mmHg 69%
    11:00 -1°C° 0 mm 3 mps 746 mmHg 63%
    12:00 0°C° 0 mm 3 mps 745 mmHg 57%
    13:00 0°C° 0 mm 3 mps 745 mmHg 55%
    14:00 0°C° 0 mm 3 mps 744 mmHg 53%
    15:00 +2°C° 0 mm 2 mps 744 mmHg 51%
    16:00 +1°C° 0 mm 2 mps 743 mmHg 55%
    17:00 +1°C° 0 mm 2 mps 743 mmHg 58%
    18:00 +1°C° 0 mm 1 mps 743 mmHg 61%
    19:00 -1°C° 0 mm 2 mps 743 mmHg 64%
    20:00 -1°C° 0 mm 2 mps 742 mmHg 66%
    21:00 -2°C° 0 mm 2 mps 742 mmHg 69%
    22:00 -2°C° 0 mm 2 mps 742 mmHg 70%
    23:00 -2°C° 0 mm 3 mps 741 mmHg 71%
    Show more